| time (UTC) | temp F | wind direction | speed knots | gust knots | rain 1hr in | rain 24hr in | rain mn in | humidity % | barometer mb |
| 20260506050705 | 53 | 241 | 0.0 | 0.0 | 0.00 | 0.41 | 0.01 | 92 | 1006.1 |
| 20260506050205 | 53 | 241 | 0.0 | 0.0 | 0.00 | 0.41 | 0.01 | 92 | 1006.1 |
| 20260506044705 | 53 | 241 | 0.0 | 2.6 | 0.00 | 0.41 | 0.01 | 92 | 1006.1 |
| 20260506044205 | 53 | 241 | 0.0 | 2.6 | 0.00 | 0.41 | 0.01 | 92 | 1006.0 |
| 20260506043705 | 53 | 241 | 0.9 | 2.6 | 0.00 | 0.41 | 0.01 | 92 | 1006.0 |
| 20260506043205 | 53 | 241 | 0.9 | 2.6 | 0.00 | 0.41 | 0.01 | 92 | 1006.0 |
| 20260506042205 | 53 | 242 | 0.0 | 3.5 | 0.00 | 0.41 | 0.01 | 92 | 1006.0 |
| 20260506041708 | 53 | 242 | 0.0 | 7.0 | 0.00 | 0.41 | 0.01 | 92 | 1005.8 |
| 20260506041205 | 53 | 242 | 0.9 | 7.0 | 0.00 | 0.41 | 0.01 | 92 | 1005.9 |
| 20260506040705 | 53 | 243 | 1.7 | 7.0 | 0.00 | 0.41 | 0.01 | 92 | 1005.8 |
| 20260506040205 | 53 | 262 | 0.9 | 3.5 | 0.01 | 0.41 | 0.01 | 92 | 1005.6 |
| 20260506035705 | 53 | 248 | 0.0 | 7.0 | 0.01 | 0.41 | 0.01 | 92 | 1005.7 |
| 20260506035205 | 53 | 248 | 1.7 | 7.0 | 0.01 | 0.41 | 0.01 | 92 | 1005.6 |
| 20260506034705 | 53 | 248 | 1.7 | 5.2 | 0.01 | 0.41 | 0.01 | 92 | 1005.7 |
| 20260506034207 | 53 | 242 | 0.0 | 0.0 | 0.01 | 0.41 | 0.01 | 92 | 1005.7 |
| 20260506034159 | 53 | 216 | 0.0 | 0.0 | 0.01 | 0.41 | 0.01 | 92 | 1005.6 |
| 20260506034119 | 53 | 222 | 0.0 | 0.0 | 0.01 | 0.41 | 0.01 | 92 | 1005.6 |
| 20260506032704 | 53 | 216 | 0.0 | 0.0 | 0.01 | 0.41 | 0.01 | 92 | 1005.6 |
| 20260506032205 | 53 | 216 | 0.0 | 0.0 | 0.01 | 0.41 | 0.01 | 92 | 1005.6 |
| 20260506031708 | 53 | 216 | 0.0 | 0.0 | 0.01 | 0.41 | 0.01 | 92 | 1005.6 |
| 20260506031205 | 53 | 216 | 0.0 | 0.0 | 0.01 | 0.41 | 0.01 | 92 | 1005.7 |
| 20260506030705 | 53 | 270 | 0.0 | 0.0 | 0.00 | 0.40 | 0.00 | 92 | 1005.7 |
| 20260506030205 | 53 | 270 | 0.0 | 0.0 | 0.00 | 0.40 | 0.00 | 92 | 1005.7 |
| 20260506025205 | 53 | 270 | 0.0 | 0.0 | 0.00 | 0.40 | 0.00 | 92 | 1005.7 |
| 20260506024705 | 53 | 270 | 0.0 | 0.0 | 0.00 | 0.40 | 0.00 | 92 | 1005.6 |
| 20260506024205 | 53 | 270 | 0.0 | 0.0 | 0.00 | 0.40 | 0.00 | 92 | 1005.7 |
| 20260506023208 | 53 | 270 | 0.0 | 0.0 | 0.00 | 0.40 | 0.00 | 92 | 1005.7 |
| 20260506022705 | 52 | 270 | 0.0 | 0.0 | 0.00 | 0.40 | 0.00 | 92 | 1005.7 |
| 20260506022205 | 52 | 270 | 0.0 | 0.0 | 0.00 | 0.40 | 0.00 | 92 | 1005.7 |
| 20260506021705 | 53 | 270 | 0.0 | 0.0 | 0.00 | 0.40 | 0.00 | 92 | 1005.7 |
| 20260506020705 | 53 | 270 | 0.0 | 0.0 | 0.00 | 0.40 | 0.00 | 92 | 1005.7 |
| 20260506020205 | 53 | 270 | 0.0 | 0.0 | 0.00 | 0.40 | 0.00 | 92 | 1005.7 |
| 20260506015704 | 53 | 270 | 0.0 | 0.0 | 0.00 | 0.40 | 0.00 | 92 | 1005.7 |
| 20260506015205 | 53 | 270 | 0.0 | 0.0 | 0.00 | 0.40 | 0.00 | 92 | 1005.6 |
| 20260506013705 | 53 | 270 | 0.0 | 0.0 | 0.00 | 0.40 | 0.00 | 92 | 1005.7 |
| 20260506013205 | 54 | 298 | 0.0 | 0.0 | 0.00 | 0.40 | 0.00 | 92 | 1005.8 |
| 20260506012705 | 54 | 298 | 0.0 | 0.0 | 0.00 | 0.40 | 0.00 | 92 | 1005.8 |
| 20260506012204 | 54 | 300 | 0.0 | 0.0 | 0.00 | 0.40 | 0.00 | 92 | 1006.0 |
| 20260506010705 | 54 | 304 | 0.0 | 0.0 | 0.00 | 0.40 | 0.00 | 92 | 1006.0 |
| 20260506010205 | 54 | 304 | 0.0 | 0.0 | 0.00 | 0.40 | 0.00 | 92 | 1006.0 |
| 20260506005705 | 54 | 304 | 0.0 | 0.0 | 0.00 | 0.40 | 0.00 | 92 | 1006.0 |
| 20260506005205 | 54 | 304 | 0.0 | 0.0 | 0.00 | 0.40 | 0.00 | 92 | 1006.1 |
| 20260506004705 | 54 | 304 | 0.0 | 0.0 | 0.00 | 0.40 | 0.00 | 92 | 1006.1 |
| 20260506004205 | 54 | 304 | 0.0 | 0.0 | 0.00 | 0.40 | 0.00 | 92 | 1006.2 |
| 20260506003705 | 54 | 304 | 0.0 | 0.0 | 0.00 | 0.40 | 0.00 | 92 | 1006.2 |
| 20260506002704 | 54 | 304 | 0.0 | 0.0 | 0.00 | 0.40 | 0.00 | 92 | 1006.3 |
| 20260506002205 | 54 | 304 | 0.0 | 0.0 | 0.00 | 0.40 | 0.00 | 92 | 1006.3 |
| 20260506001705 | 54 | 304 | 0.0 | 0.0 | 0.00 | 0.40 | 0.00 | 92 | 1006.3 |
| 20260506000705 | 54 | 304 | 0.0 | 0.0 | 0.00 | 0.40 | 0.00 | 92 | 1006.4 |
| 20260506000205 | 54 | 304 | 0.0 | 0.0 | 0.00 | 0.40 | 0.00 | 92 | 1006.4 |
| 20260505235704 | 54 | 304 | 0.0 | 0.0 | 0.00 | 0.40 | 0.00 | 92 | 1006.4 |
| 20260505235205 | 54 | 304 | 0.0 | 0.0 | 0.00 | 0.40 | 0.00 | 92 | 1006.4 |
| 20260505234705 | 54 | 304 | 0.0 | 0.0 | 0.00 | 0.40 | 0.00 | 92 | 1006.5 |
| 20260505234205 | 53 | 304 | 0.0 | 0.0 | 0.00 | 0.40 | 0.00 | 92 | 1006.5 |
| 20260505233705 | 53 | 304 | 0.0 | 0.0 | 0.00 | 0.40 | 0.00 | 92 | 1006.5 |
| 20260505233205 | 53 | 304 | 0.0 | 0.0 | 0.00 | 0.40 | 0.00 | 92 | 1006.5 |
| 20260505232729 | 53 | 304 | 0.0 | 0.0 | 0.00 | 0.40 | 0.00 | 92 | 1006.5 |
| 20260505231705 | 53 | 304 | 0.0 | 0.0 | 0.00 | 0.40 | 0.00 | 92 | 1006.6 |
| 20260505231205 | 53 | 304 | 0.0 | 0.0 | 0.00 | 0.40 | 0.00 | 92 | 1006.5 |
| 20260505230728 | 53 | 304 | 0.0 | 0.0 | 0.00 | 0.40 | 0.00 | 92 | 1006.5 |
| 20260505230205 | 53 | 304 | 0.0 | 0.0 | 0.00 | 0.40 | 0.00 | 92 | 1006.6 |
| 20260505225705 | 53 | 304 | 0.0 | 0.0 | 0.00 | 0.40 | 0.00 | 92 | 1006.6 |
| 20260505225205 | 53 | 304 | 0.0 | 0.0 | 0.00 | 0.40 | 0.00 | 92 | 1006.5 |
| 20260505224705 | 53 | 304 | 0.0 | 0.0 | 0.00 | 0.40 | 0.00 | 92 | 1006.5 |
| 20260505223705 | 53 | 304 | 0.0 | 0.0 | 0.00 | 0.40 | 0.00 | 92 | 1006.4 |
| 20260505222705 | 53 | 304 | 0.0 | 0.0 | 0.00 | 0.40 | 0.00 | 92 | 1006.5 |
| 20260505222205 | 53 | 304 | 0.0 | 0.0 | 0.00 | 0.40 | 0.00 | 92 | 1006.5 |
| 20260505221705 | 53 | 304 | 0.0 | 0.0 | 0.00 | 0.40 | 0.00 | 92 | 1006.5 |
| 20260505221205 | 53 | 304 | 0.0 | 0.0 | 0.00 | 0.40 | 0.00 | 92 | 1006.4 |
| 20260505220705 | 53 | 304 | 0.0 | 0.0 | 0.00 | 0.40 | 0.00 | 92 | 1006.4 |
| 20260505215705 | 53 | 304 | 0.0 | 0.0 | 0.00 | 0.40 | 0.40 | 92 | 1006.5 |
| 20260505215213 | 53 | 304 | 0.0 | 0.0 | 0.00 | 0.40 | 0.40 | 92 | 1006.3 |
| 20260505214705 | 53 | 304 | 0.0 | 0.0 | 0.00 | 0.40 | 0.40 | 92 | 1006.3 |
| 20260505214205 | 53 | 304 | 0.0 | 0.0 | 0.00 | 0.40 | 0.40 | 92 | 1006.4 |
| 20260505213705 | 54 | 304 | 0.0 | 0.0 | 0.00 | 0.40 | 0.40 | 92 | 1006.6 |
| 20260505213205 | 54 | 304 | 0.0 | 0.0 | 0.00 | 0.40 | 0.40 | 92 | 1006.5 |
| 20260505212705 | 54 | 304 | 0.0 | 0.0 | 0.00 | 0.40 | 0.40 | 92 | 1006.6 |
| 20260505212205 | 54 | 304 | 0.0 | 0.0 | 0.00 | 0.40 | 0.40 | 92 | 1006.6 |
| 20260505211705 | 54 | 304 | 0.0 | 0.0 | 0.00 | 0.40 | 0.40 | 92 | 1006.7 |
| 20260505211205 | 53 | 304 | 0.0 | 0.0 | 0.00 | 0.40 | 0.40 | 92 | 1006.7 |
| 20260505210705 | 53 | 304 | 0.0 | 0.0 | 0.00 | 0.40 | 0.40 | 92 | 1006.6 |
| 20260505210205 | 53 | 304 | 0.0 | 0.0 | 0.00 | 0.40 | 0.40 | 92 | 1006.5 |
| 20260505205705 | 53 | 304 | 0.0 | 0.0 | 0.00 | 0.40 | 0.40 | 91 | 1006.5 |
| 20260505205218 | 53 | 304 | 0.0 | 0.0 | 0.00 | 0.40 | 0.40 | 92 | 1006.7 |
| 20260505204705 | 54 | 304 | 0.0 | 0.0 | 0.00 | 0.40 | 0.40 | 92 | 1006.7 |
| 20260505204205 | 54 | 304 | 0.0 | 0.0 | 0.00 | 0.40 | 0.40 | 91 | 1006.7 |
| 20260505203708 | 54 | 304 | 0.0 | 0.0 | 0.00 | 0.40 | 0.40 | 91 | 1006.5 |
| 20260505203211 | 54 | 304 | 0.0 | 0.0 | 0.00 | 0.40 | 0.40 | 91 | 1006.5 |
| 20260505202705 | 54 | 304 | 0.0 | 0.0 | 0.00 | 0.40 | 0.40 | 91 | 1006.5 |
| 20260505202205 | 54 | 304 | 0.0 | 0.0 | 0.00 | 0.40 | 0.40 | 91 | 1006.5 |
| 20260505201705 | 54 | 304 | 0.0 | 0.0 | 0.00 | 0.40 | 0.40 | 92 | 1006.5 |
| 20260505201205 | 54 | 304 | 0.0 | 0.0 | 0.00 | 0.40 | 0.40 | 92 | 1006.3 |
| 20260505200705 | 54 | 304 | 0.0 | 0.0 | 0.00 | 0.40 | 0.40 | 92 | 1006.3 |
| 20260505200204 | 54 | 304 | 0.0 | 0.0 | 0.00 | 0.40 | 0.40 | 92 | 1006.3 |
| 20260505195705 | 54 | 304 | 0.0 | 0.0 | 0.00 | 0.40 | 0.40 | 91 | 1006.3 |
| 20260505194705 | 54 | 304 | 0.0 | 0.0 | 0.00 | 0.40 | 0.40 | 91 | 1006.2 |
| 20260505194205 | 55 | 336 | 0.0 | 0.0 | 0.00 | 0.40 | 0.40 | 91 | 1006.2 |
| 20260505193704 | 55 | 342 | 0.0 | 0.0 | 0.00 | 0.40 | 0.40 | 91 | 1006.1 |
| 20260505193205 | 55 | 345 | 0.0 | 0.0 | 0.00 | 0.40 | 0.40 | 91 | 1006.1 |
| 20260505192705 | 55 | 345 | 0.0 | 0.0 | 0.00 | 0.40 | 0.40 | 91 | 1006.0 |
| 20260505192205 | 55 | 345 | 0.0 | 0.0 | 0.00 | 0.40 | 0.40 | 91 | 1006.1 |
| 20260505191705 | 55 | 345 | 0.0 | 0.0 | 0.00 | 0.40 | 0.40 | 91 | 1006.0 |
| 20260505191208 | 55 | 345 | 0.0 | 0.0 | 0.00 | 0.40 | 0.40 | 91 | 1006.1 |
| 20260505190205 | 55 | 345 | 0.0 | 0.0 | 0.01 | 0.40 | 0.40 | 91 | 1006.2 |
| 20260505185205 | 55 | 345 | 0.0 | 0.0 | 0.02 | 0.40 | 0.40 | 91 | 1006.1 |
| 20260505184705 | 55 | 345 | 0.0 | 0.0 | 0.02 | 0.40 | 0.40 | 91 | 1006.0 |
| 20260505184205 | 55 | 345 | 0.0 | 0.0 | 0.03 | 0.40 | 0.40 | 91 | 1006.0 |
| 20260505183705 | 55 | 345 | 0.0 | 0.0 | 0.05 | 0.40 | 0.40 | 91 | 1006.1 |
| 20260505182705 | 55 | 345 | 0.0 | 0.0 | 0.07 | 0.40 | 0.40 | 91 | 1006.2 |
| 20260505182205 | 55 | 345 | 0.0 | 0.0 | 0.08 | 0.40 | 0.40 | 91 | 1006.2 |
| 20260505181705 | 56 | 345 | 0.0 | 0.0 | 0.09 | 0.40 | 0.40 | 91 | 1006.3 |
| 20260505181205 | 56 | 345 | 0.0 | 0.0 | 0.12 | 0.40 | 0.40 | 91 | 1006.3 |
| 20260505180705 | 56 | 345 | 0.0 | 0.0 | 0.20 | 0.40 | 0.40 | 91 | 1006.3 |
| 20260505175705 | 55 | 345 | 0.0 | 3.5 | 0.39 | 0.39 | 0.39 | 90 | 1006.6 |
| 20260505175205 | 55 | 345 | 0.0 | 3.5 | 0.38 | 0.38 | 0.38 | 90 | 1006.4 |
| 20260505174705 | 56 | 294 | 0.0 | 7.0 | 0.38 | 0.38 | 0.38 | 90 | 1006.4 |
| 20260505174229 | 55 | 261 | 0.9 | 8.7 | 0.36 | 0.36 | 0.36 | 90 | 1006.2 |
| 20260505173705 | 56 | 261 | 2.6 | 12.2 | 0.35 | 0.35 | 0.35 | 90 | 1006.0 |
| 20260505173205 | 56 | 265 | 3.5 | 15.6 | 0.34 | 0.34 | 0.34 | 90 | 1006.0 |
| 20260505172705 | 56 | 248 | 4.3 | 18.2 | 0.33 | 0.33 | 0.33 | 89 | 1005.9 |
| 20260505171705 | 56 | 249 | 8.7 | 25.2 | 0.31 | 0.31 | 0.31 | 89 | 1005.9 |
| 20260505171224 | 57 | 272 | 10.4 | 32.2 | 0.25 | 0.25 | 0.25 | 87 | 1005.9 |
| 20260505170704 | 58 | 277 | 13.9 | 32.2 | 0.09 | 0.09 | 0.09 | 83 | 1006.0 |
| 20260505170205 | 61 | 253 | 13.9 | 32.2 | 0.00 | 0.00 | 0.00 | 76 | 1006.4 |
| 20260505165705 | 65 | 228 | 6.1 | 18.2 | 0.00 | 0.00 | 0.00 | 67 | 1005.5 |
| 20260505165205 | 67 | 180 | 0.9 | 4.3 | 0.00 | 0.00 | 0.00 | 66 | 1004.5 |
| 20260505164705 | 67 | 30 | 0.9 | 7.0 | 0.00 | 0.00 | 0.00 | 64 | 1004.0 |
| 20260505163206 | 68 | 58 | 1.7 | 7.8 | 0.00 | 0.00 | 0.00 | 62 | 1003.7 |
| 20260505162705 | 68 | 32 | 1.7 | 9.6 | 0.00 | 0.00 | 0.00 | 61 | 1003.9 |
| 20260505162205 | 68 | 347 | 0.9 | 9.6 | 0.00 | 0.00 | 0.00 | 60 | 1004.1 |
| 20260505161705 | 69 | 59 | 1.7 | 9.6 | 0.00 | 0.00 | 0.00 | 60 | 1004.2 |
| 20260505161205 | 69 | 87 | 0.9 | 8.7 | 0.00 | 0.00 | 0.00 | 63 | 1004.3 |
| 20260505160705 | 69 | 34 | 1.7 | 11.3 | 0.00 | 0.00 | 0.00 | 63 | 1004.2 |
| 20260505153205 | 70 | 351 | 0.9 | 8.7 | 0.00 | 0.00 | 0.00 | 63 | 1004.4 |
| 20260505152705 | 70 | 13 | 1.7 | 8.7 | 0.00 | 0.00 | 0.00 | 62 | 1004.4 |
| 20260505152205 | 70 | 355 | 2.6 | 9.6 | 0.00 | 0.00 | 0.00 | 62 | 1004.4 |
| 20260505151205 | 69 | 22 | 5.2 | 9.6 | 0.00 | 0.00 | 0.00 | 62 | 1004.6 |
| 20260505150708 | 70 | 12 | 5.2 | 9.6 | 0.00 | 0.00 | 0.00 | 61 | 1004.6 |
| 20260505140205 | 71 | 14 | 1.7 | 8.7 | 0.00 | 0.00 | 0.00 | 58 | 1004.9 |
| 20260505130205 | 74 | 38 | 2.6 | 9.6 | 0.00 | 0.00 | 0.00 | 49 | 1005.2 |
| 20260505124705 | 76 | 297 | 4.3 | 9.6 | 0.00 | 0.00 | 0.00 | 49 | 1005.4 |
| 20260505124205 | 76 | 5 | 4.3 | 8.7 | 0.00 | 0.00 | 0.00 | 48 | 1005.5 |
| 20260505123205 | 75 | 340 | 1.7 | 7.8 | 0.00 | 0.00 | 0.00 | 53 | 1005.5 |
| 20260505122205 | 73 | 321 | 0.9 | 5.2 | 0.00 | 0.00 | 0.00 | 52 | 1005.6 |
| 20260505121705 | 73 | 316 | 0.9 | 6.1 | 0.00 | 0.00 | 0.00 | 50 | 1005.7 |
| 20260505120233 | 74 | 49 | 1.7 | 7.0 | 0.00 | 0.00 | 0.00 | 48 | 1005.8 |
| 20260505115705 | 74 | 13 | 0.9 | 7.0 | 0.00 | 0.00 | 0.00 | 51 | 1005.9 |
| 20260505115205 | 74 | 260 | 0.9 | 7.0 | 0.00 | 0.00 | 0.00 | 53 | 1005.9 |
| 20260505114705 | 74 | 309 | 1.7 | 7.0 | 0.00 | 0.00 | 0.00 | 50 | 1006.0 |
| 20260505114205 | 74 | 309 | 1.7 | 5.2 | 0.00 | 0.00 | 0.00 | 49 | 1006.1 |
| 20260505113705 | 74 | 26 | 1.7 | 5.2 | 0.00 | 0.00 | 0.00 | 49 | 1006.1 |
| 20260505113205 | 74 | 37 | 0.9 | 6.1 | 0.00 | 0.00 | 0.00 | 48 | 1006.1 |
| 20260505112205 | 73 | 40 | 0.9 | 6.1 | 0.00 | 0.00 | 0.00 | 49 | 1006.3 |
| 20260505111705 | 73 | 5 | 0.9 | 2.6 | 0.00 | 0.00 | 0.00 | 50 | 1006.3 |
| 20260505111205 | 73 | 278 | 0.0 | 5.2 | 0.00 | 0.00 | 0.00 | 49 | 1006.3 |
| 20260505110705 | 73 | 323 | 0.0 | 5.2 | 0.00 | 0.00 | 0.00 | 50 | 1006.4 |
| 20260505110205 | 73 | 324 | 0.9 | 7.8 | 0.00 | 0.00 | 0.00 | 53 | 1006.4 |
| 20260505102204 | 73 | 13 | 1.7 | 8.7 | 0.00 | 0.00 | 0.00 | 52 | 1006.8 |
| 20260505101705 | 73 | 330 | 2.6 | 7.0 | 0.00 | 0.00 | 0.00 | 54 | 1006.9 |
| 20260505101205 | 73 | 342 | 1.7 | 7.0 | 0.00 | 0.00 | 0.00 | 56 | 1006.9 |
| 20260505100205 | 72 | 319 | 0.9 | 6.1 | 0.00 | 0.00 | 0.00 | 59 | 1007.0 |
| 20260505095705 | 72 | 323 | 0.9 | 7.0 | 0.00 | 0.00 | 0.00 | 59 | 1007.2 |
| 20260505095205 | 71 | 281 | 0.9 | 8.7 | 0.00 | 0.00 | 0.00 | 64 | 1007.1 |
| 20260505094205 | 71 | 340 | 1.7 | 8.7 | 0.00 | 0.00 | 0.00 | 64 | 1007.3 |
| 20260505093705 | 71 | 286 | 0.9 | 4.3 | 0.00 | 0.00 | 0.00 | 65 | 1007.3 |
| 20260505093205 | 71 | 340 | 0.9 | 4.3 | 0.00 | 0.00 | 0.00 | 64 | 1007.4 |
| 20260505092705 | 70 | 344 | 0.9 | 7.0 | 0.00 | 0.00 | 0.00 | 64 | 1007.4 |
| 20260505092205 | 70 | 319 | 0.9 | 7.0 | 0.00 | 0.00 | 0.00 | 65 | 1007.5 |
| 20260505091705 | 69 | 288 | 0.9 | 7.0 | 0.00 | 0.00 | 0.00 | 69 | 1007.6 |
| 20260505091231 | 69 | 313 | 0.0 | 5.2 | 0.00 | 0.00 | 0.00 | 68 | 1007.6 |
| 20260505090705 | 69 | 294 | 0.0 | 7.0 | 0.00 | 0.00 | 0.00 | 67 | 1007.6 |
| 20260505090205 | 69 | 291 | 0.9 | 7.8 | 0.00 | 0.00 | 0.00 | 67 | 1007.7 |
| 20260505085705 | 69 | 340 | 2.6 | 7.8 | 0.00 | 0.00 | 0.00 | 65 | 1007.7 |
| 20260505085205 | 69 | 355 | 2.6 | 7.0 | 0.00 | 0.00 | 0.00 | 63 | 1007.7 |
| 20260505084705 | 70 | 348 | 1.7 | 5.2 | 0.00 | 0.00 | 0.00 | 63 | 1007.7 |
| 20260505083705 | 70 | 338 | 0.9 | 5.2 | 0.00 | 0.00 | 0.00 | 65 | 1007.8 |
| 20260505083205 | 70 | 113 | 0.9 | 2.6 | 0.00 | 0.00 | 0.00 | 63 | 1007.8 |
| 20260505082704 | 69 | 355 | 0.0 | 2.6 | 0.00 | 0.00 | 0.00 | 61 | 1007.9 |
| 20260505082205 | 69 | 53 | 0.0 | 2.6 | 0.00 | 0.00 | 0.00 | 68 | 1008.0 |
| 20260505081705 | 68 | 57 | 0.0 | 2.6 | 0.00 | 0.00 | 0.00 | 66 | 1008.1 |
| 20260505081205 | 68 | 58 | 0.0 | 2.6 | 0.00 | 0.00 | 0.00 | 66 | 1008.1 |
| 20260505080705 | 68 | 14 | 0.0 | 2.6 | 0.00 | 0.00 | 0.00 | 68 | 1008.1 |
| 20260505080205 | 67 | 14 | 0.0 | 7.0 | 0.00 | 0.00 | 0.00 | 69 | 1008.1 |
| 20260505075705 | 67 | 102 | 1.7 | 7.0 | 0.00 | 0.00 | 0.00 | 68 | 1008.1 |
| 20260505075206 | 67 | 58 | 1.7 | 7.0 | 0.00 | 0.00 | 0.00 | 68 | 1008.2 |
| 20260505074705 | 67 | 5 | 0.9 | 4.3 | 0.00 | 0.00 | 0.00 | 71 | 1008.2 |
| 20260505074205 | 67 | 27 | 0.0 | 3.5 | 0.00 | 0.00 | 0.00 | 71 | 1008.2 |
| 20260505073704 | 66 | 27 | 0.0 | 0.0 | 0.00 | 0.00 | 0.00 | 70 | 1008.3 |
| 20260505073205 | 66 | 36 | 0.0 | 4.3 | 0.00 | 0.00 | 0.00 | 71 | 1008.3 |
| 20260505072705 | 65 | 5 | 0.9 | 4.3 | 0.00 | 0.00 | 0.00 | 74 | 1008.4 |
| 20260505072205 | 65 | 355 | 0.9 | 4.3 | 0.00 | 0.00 | 0.00 | 73 | 1008.5 |
| 20260505071705 | 65 | 11 | 0.9 | 3.5 | 0.00 | 0.00 | 0.00 | 73 | 1008.5 |
| 20260505071205 | 64 | 63 | 0.0 | 3.5 | 0.00 | 0.00 | 0.00 | 75 | 1008.5 |
| 20260505070705 | 64 | 17 | 0.9 | 3.5 | 0.00 | 0.00 | 0.00 | 75 | 1008.5 |
| 20260505070224 | 63 | 96 | 0.0 | 2.6 | 0.00 | 0.00 | 0.00 | 75 | 1008.7 |
| 20260505065705 | 63 | 87 | 0.0 | 1.7 | 0.00 | 0.00 | 0.00 | 77 | 1008.7 |
| 20260505065205 | 63 | 134 | 0.0 | 1.7 | 0.00 | 0.00 | 0.00 | 78 | 1008.7 |
| 20260505064705 | 62 | 135 | 0.0 | 0.9 | 0.00 | 0.00 | 0.00 | 79 | 1008.7 |
| 20260505063205 | 61 | 32 | 0.0 | 0.0 | 0.00 | 0.00 | 0.00 | 79 | 1008.7 |
| 20260505062708 | 61 | 13 | 0.0 | 0.0 | 0.00 | 0.00 | 0.00 | 81 | 1008.7 |
| 20260505062205 | 61 | 13 | 0.0 | 3.5 | 0.00 | 0.00 | 0.00 | 81 | 1008.8 |
| 20260505061705 | 61 | 13 | 0.0 | 3.5 | 0.00 | 0.00 | 0.00 | 80 | 1008.8 |
| 20260505061205 | 61 | 14 | 0.9 | 3.5 | 0.00 | 0.00 | 0.00 | 81 | 1008.8 |
| 20260505060208 | 60 | 104 | 0.0 | 0.0 | 0.00 | 0.00 | 0.00 | 83 | 1008.8 |
| 20260505055705 | 60 | 107 | 0.0 | 0.0 | 0.00 | 0.00 | 0.00 | 86 | 1008.8 |